User: anonymous
Location: Unspecified
(0.0000°N, 0.0000°E)
Time: 12:01:09
(UTC+00:00)
Language:

GOSAT - Orbit

View from above orbital plane
View from above orbital plane
View from above satellite
View from above satellite

Ground track
Ground track

The orbit data is extracted from the following two-line orbital elements,

1 33492U 09002A   14110.11214485  .00000228  00000-0  48530-4 0  4682
2 33492 098.0451 220.6752 0001642 085.9196 274.2296 14.67564100280562
Epoch (UTC): 20 April 2014 02:41:29
Eccentricity: 0.0001642
inclination: 98.0451°
perigee height: 668 km
apogee height: 670 km
right ascension of ascending node: 220.6752°
argument of perigee: 85.9196°
revolutions per day: 14.67564100
mean anomaly at epoch: 274.2296°
orbit number at epoch: 28056

The dashed part of the orbit path shows where the satellite is in the earth's shadow,  

DLR